sat.trackr.live / text

‹ back to catalog

TIANSHI-01

NORAD 68415 · 2026-066D

PAYLOAD ACTIVE UNKNOWN

§ Identity

Operator
Country
PRC
Launch date
2026-03-30
Launch site
JSC
Launch vehicle
Mass (kg)
RCS (m²)

External: N2YO · Heavens-Above · Gunter

§ Orbital elements

Epoch: 2026-05-25T05:34:47.654400Z

Period
96.74 min
Inclination
84.9667°
Eccentricity
0.0024239
Mean motion
14.88576039 rev/d
Perigee alt
585.5 km
Apogee alt
619.3 km
Semi-major
6,980.5 km
B*
2.2031e-4
RAAN
242.3365°
Arg perigee
338.0892°
Mean anomaly
21.9292°
Rev number
831

§ Raw data

TIANSHI-011 68415U 26066D   26145.23249600  .00002089  00000+0  22031-3 0  99972 68415  84.9667 242.3365 0024239 338.0892  21.9292 14.88576039  8312

JSON: /api/v1/satellites/68415 · /tle

For live sub-satellite position, see the globe view (requires WebGL).

§ Visibility from observer

Set your observer location to see the next 7 days of passes ≥ 10°. The values pass through the URL so the page stays shareable.

No JS? Fill the form by hand. The geolocation button needs JavaScript.